Location: Arrodets-la-Barthe
(43.0306°N, 0.2829°E)
Time: 14:59:37
(UTC+00:00)

H-2A R/B - Pass Details

Date: 24 October 2021
Orbit: 732 x 837 km, 98.2° (Epoch: 07 December)

Event Time Altitude Azimuth Distance (km) Brightness Sun altitude
Rises 17:33:47 0° 152° (SSE) 3,340 5.1 -6.5°
Reaches altitude 10° 17:36:08 10° 148° (SSE) 2,422 4.4 -6.9°
Maximum altitude 17:41:24 56° 72° (ENE) 987 2.3 -7.9°
Drops below altitude 10° 17:46:44 10° 355° (N) 2,461 4.6 -8.8°
Sets 17:49:08 0° 352° (N) 3,398 5.4 -9.3°
